| time (UTC) | temp C | wind direction | speed KPH | gust KPH | rain 1hr cm | rain 24hr cm | rain mn cm | humidity % | barometer mb |
| 20260905184609 | 24 | 105 | 0.0 | 1.6 | 0.00 | 0.00 | 0.00 | 71 | 1009.7 |
| 20260905184108 | 24 | 87 | 4.8 | 6.4 | 0.00 | 0.00 | 0.00 | 63 | 1009.5 |
| 20260905183607 | 25 | 89 | 1.6 | 1.6 | 0.00 | 0.00 | 0.00 | 66 | 1009.6 |
| 20260905183103 | 23 | 60 | 1.6 | 1.6 | 0.00 | 0.00 | 0.00 | 68 | 1009.5 |
| 20260905182602 | 23 | 108 | 1.6 | 1.6 | 0.00 | 0.00 | 0.00 | 66 | 1009.5 |
| 20260905182057 | 22 | 216 | 3.2 | 4.8 | 0.00 | 0.00 | 0.00 | 70 | 1009.8 |
| 20260905181557 | 23 | 172 | 3.2 | 4.8 | 0.00 | 0.00 | 0.00 | 69 | 1009.6 |
| 20260905181056 | 23 | 155 | 1.6 | 3.2 | 0.00 | 0.00 | 0.00 | 69 | 1009.6 |
| 20260905180551 | 23 | 190 | 1.6 | 3.2 | 0.00 | 0.00 | 0.00 | 68 | 1009.8 |
| 20260905180046 | 23 | 136 | 1.6 | 3.2 | 0.00 | 0.00 | 0.00 | 72 | 1009.9 |
| 20260905175545 | 22 | 126 | 1.6 | 1.6 | 0.00 | 0.00 | 0.00 | 72 | 1009.6 |
| 20260905175041 | 23 | 197 | 1.6 | 3.2 | 0.00 | 0.00 | 0.00 | 71 | 1009.7 |
| 20260905174536 | 23 | 56 | 0.0 | 1.6 | 0.00 | 0.00 | 0.00 | 69 | 1010.1 |
| 20260905174032 | 23 | 67 | 1.6 | 1.6 | 0.00 | 0.00 | 0.00 | 66 | 1009.8 |
| 20260905173528 | 24 | 246 | 3.2 | 3.2 | 0.00 | 0.00 | 0.00 | 63 | 1009.8 |
| 20260905173023 | 23 | 182 | 1.6 | 3.2 | 0.00 | 0.00 | 0.00 | 69 | 1009.8 |
| 20260905172521 | 23 | 215 | 3.2 | 3.2 | 0.00 | 0.00 | 0.00 | 70 | 1009.9 |
| 20260905172017 | 22 | 161 | 1.6 | 1.6 | 0.00 | 0.00 | 0.00 | 75 | 1009.9 |
| 20260905171513 | 22 | 166 | 3.2 | 3.2 | 0.00 | 0.00 | 0.00 | 71 | 1009.9 |
| 20260905171009 | 22 | 281 | 1.6 | 1.6 | 0.00 | 0.00 | 0.00 | 73 | 1009.9 |
| 20260905170506 | 23 | 63 | 3.2 | 4.8 | 0.00 | 0.00 | 0.00 | 71 | 1010.1 |
| 20260905170000 | 23 | 86 | 1.6 | 3.2 | 0.00 | 0.00 | 0.00 | 72 | 1009.9 |
| 20260905165455 | 23 | 126 | 1.6 | 1.6 | 0.00 | 0.00 | 0.00 | 70 | 1010.4 |
| 20260905164949 | 23 | 100 | 0.0 | 1.6 | 0.00 | 0.00 | 0.00 | 74 | 1010.2 |
| 20260905164444 | 22 | 119 | 3.2 | 3.2 | 0.00 | 0.00 | 0.00 | 74 | 1010.3 |
| 20260905163938 | 22 | 62 | 3.2 | 3.2 | 0.00 | 0.00 | 0.00 | 73 | 1009.9 |
| 20260905163435 | 23 | 209 | 1.6 | 1.6 | 0.00 | 0.00 | 0.00 | 76 | 1010.4 |
| 20260905162931 | 23 | 185 | 3.2 | 4.8 | 0.00 | 0.00 | 0.00 | 72 | 1010.1 |
| 20260905162426 | 22 | 115 | 1.6 | 3.2 | 0.00 | 0.00 | 0.00 | 73 | 1010.2 |
| 20260905161921 | 21 | 96 | 0.0 | 1.6 | 0.00 | 0.00 | 0.00 | 76 | 1010.4 |
| 20260905161420 | 21 | 131 | 1.6 | 3.2 | 0.00 | 0.00 | 0.00 | 76 | 1010.4 |
| 20260905160918 | 22 | 182 | 1.6 | 3.2 | 0.00 | 0.00 | 0.00 | 75 | 1010.5 |
| 20260905160412 | 22 | 197 | 1.6 | 1.6 | 0.00 | 0.00 | 0.00 | 77 | 1010.3 |
| 20260905155906 | 21 | 87 | 1.6 | 1.6 | 0.00 | 0.00 | 0.00 | 80 | 1010.3 |
| 20260905155401 | 21 | 204 | 1.6 | 3.2 | 0.00 | 0.00 | 0.00 | 75 | 1010.4 |
| 20260905154900 | 21 | 189 | 4.8 | 9.7 | 0.00 | 0.00 | 0.00 | 78 | 1010.3 |
| 20260905154355 | 23 | 176 | 1.6 | 3.2 | 0.00 | 0.00 | 0.00 | 76 | 1010.3 |
| 20260905153851 | 21 | 187 | 1.6 | 4.8 | 0.00 | 0.00 | 0.00 | 76 | 1010.3 |
| 20260905153347 | 23 | 140 | 4.8 | 6.4 | 0.00 | 0.00 | 0.00 | 75 | 1010.4 |
| 20260905152847 | 22 | 123 | 1.6 | 1.6 | 0.00 | 0.00 | 0.00 | 76 | 1010.2 |
| 20260905152346 | 22 | 60 | 1.6 | 3.2 | 0.00 | 0.00 | 0.00 | 74 | 1010.5 |
| 20260905151841 | 22 | 103 | 3.2 | 3.2 | 0.00 | 0.00 | 0.00 | 72 | 1010.5 |
| 20260905151337 | 22 | 145 | 1.6 | 3.2 | 0.00 | 0.00 | 0.00 | 76 | 1010.6 |
| 20260905150837 | 21 | 213 | 0.0 | 0.0 | 0.00 | 0.00 | 0.00 | 82 | 1010.4 |
| 20260905150331 | 21 | 82 | 0.0 | 1.6 | 0.00 | 0.00 | 0.00 | 78 | 1010.4 |
| 20260905145828 | 22 | 153 | 1.6 | 1.6 | 0.00 | 0.00 | 0.00 | 78 | 1010.4 |
| 20260905145323 | 21 | 168 | 1.6 | 1.6 | 0.00 | 0.00 | 0.00 | 82 | 1010.5 |
| 20260905144822 | 21 | 202 | 0.0 | 1.6 | 0.00 | 0.00 | 0.00 | 83 | 1010.5 |
| 20260905144318 | 21 | 188 | 1.6 | 3.2 | 0.00 | 0.00 | 0.00 | 79 | 1010.6 |
| 20260905143816 | 22 | 202 | 1.6 | 3.2 | 0.00 | 0.00 | 0.00 | 83 | 1010.8 |
| 20260905143311 | 20 | 200 | 1.6 | 1.6 | 0.00 | 0.00 | 0.00 | 80 | 1010.5 |
| 20260905142810 | 20 | 200 | 0.0 | 1.6 | 0.00 | 0.00 | 0.00 | 82 | 1010.6 |
| 20260905142306 | 21 | 204 | 3.2 | 3.2 | 0.00 | 0.00 | 0.00 | 84 | 1010.5 |
| 20260905141800 | 20 | 167 | 1.6 | 1.6 | 0.00 | 0.00 | 0.00 | 82 | 1010.6 |
| 20260905141255 | 20 | 168 | 0.0 | 1.6 | 0.00 | 0.00 | 0.00 | 86 | 1010.6 |
| 20260905140751 | 20 | 167 | 3.2 | 6.4 | 0.00 | 0.00 | 0.00 | 84 | 1010.5 |
| 20260905140251 | 20 | 182 | 4.8 | 4.8 | 0.00 | 0.00 | 0.00 | 83 | 1010.8 |
| 20260905135749 | 19 | 100 | 1.6 | 1.6 | 0.00 | 0.00 | 0.00 | 86 | 1010.7 |
| 20260905135245 | 20 | 78 | 0.0 | 0.0 | 0.00 | 0.00 | 0.00 | 85 | 1010.6 |
| 20260905134744 | 20 | 110 | 3.2 | 3.2 | 0.00 | 0.00 | 0.00 | 83 | 1010.5 |
| 20260905134239 | 19 | 106 | 1.6 | 3.2 | 0.00 | 0.00 | 0.00 | 87 | 1010.5 |
| 20260905133734 | 20 | 207 | 1.6 | 1.6 | 0.00 | 0.00 | 0.00 | 88 | 1010.2 |
| 20260905133229 | 20 | 207 | 1.6 | 1.6 | 0.00 | 0.00 | 0.00 | 87 | 1010.5 |
| 20260905132728 | 20 | 135 | 1.6 | 1.6 | 0.00 | 0.00 | 0.00 | 88 | 1010.4 |
| 20260905132224 | 18 | 188 | 1.6 | 3.2 | 0.00 | 0.00 | 0.00 | 90 | 1010.4 |
| 20260905131719 | 18 | 185 | 3.2 | 3.2 | 0.00 | 0.00 | 0.00 | 91 | 1010.5 |
| 20260905131214 | 18 | 120 | 3.2 | 4.8 | 0.00 | 0.00 | 0.00 | 89 | 1010.6 |
| 20260905130713 | 18 | 194 | 3.2 | 3.2 | 0.00 | 0.00 | 0.00 | 92 | 1010.6 |
| 20260905130208 | 17 | 175 | 1.6 | 1.6 | 0.00 | 0.00 | 0.00 | 96 | 1010.7 |
| 20260905125703 | 16 | 203 | 1.6 | 1.6 | 0.00 | 0.00 | 0.00 | 99 | 1010.7 |
| 20260905125158 | 16 | 183 | 1.6 | 1.6 | 0.00 | 0.00 | 0.00 | 99 | 1010.7 |
| 20260905124654 | 16 | 194 | 0.0 | 0.0 | 0.00 | 0.00 | 0.00 | 99 | 1010.7 |
| 20260905124150 | 15 | 194 | 0.0 | 1.6 | 0.00 | 0.00 | 0.00 | 99 | 1010.9 |
| 20260905123645 | 15 | 195 | 1.6 | 1.6 | 0.00 | 0.00 | 0.00 | 99 | 1011.1 |
| 20260905123142 | 15 | 199 | 1.6 | 1.6 | 0.00 | 0.00 | 0.00 | 99 | 1011.0 |
| 20260905122641 | 15 | 199 | 1.6 | 1.6 | 0.00 | 0.00 | 0.00 | 99 | 1011.1 |
| 20260905122136 | 15 | 199 | 3.2 | 3.2 | 0.00 | 0.00 | 0.00 | 99 | 1010.9 |
| 20260905121631 | 15 | 199 | 3.2 | 3.2 | 0.00 | 0.00 | 0.00 | 99 | 1011.0 |
| 20260905121127 | 14 | 199 | 3.2 | 3.2 | 0.00 | 0.00 | 0.00 | 99 | 1011.0 |
| 20260905120625 | 14 | 198 | 1.6 | 1.6 | 0.00 | 0.00 | 0.00 | 99 | 1010.8 |
| 20260905120121 | 14 | 199 | 1.6 | 3.2 | 0.00 | 0.00 | 0.00 | 99 | 1010.6 |
| 20260905115620 | 14 | 199 | 1.6 | 3.2 | 0.00 | 0.00 | 0.00 | 99 | 1010.8 |
| 20260905115115 | 14 | 199 | 3.2 | 3.2 | 0.00 | 0.00 | 0.00 | 99 | 1010.8 |
| 20260905114614 | 14 | 199 | 1.6 | 3.2 | 0.00 | 0.00 | 0.00 | 99 | 1010.7 |
| 20260905114113 | 14 | 198 | 1.6 | 1.6 | 0.00 | 0.00 | 0.00 | 99 | 1010.9 |
| 20260905113608 | 14 | 198 | 0.0 | 0.0 | 0.00 | 0.00 | 0.00 | 99 | 1010.8 |
| 20260905113104 | 13 | 198 | 1.6 | 1.6 | 0.00 | 0.00 | 0.00 | 99 | 1010.9 |
| 20260905112558 | 13 | 198 | 0.0 | 0.0 | 0.00 | 0.00 | 0.00 | 99 | 1010.7 |
| 20260905112054 | 13 | 198 | 0.0 | 0.0 | 0.00 | 0.00 | 0.00 | 99 | 1010.4 |
| 20260905111549 | 13 | 198 | 0.0 | 1.6 | 0.00 | 0.00 | 0.00 | 99 | 1010.4 |
| 20260905111048 | 13 | 198 | 0.0 | 0.0 | 0.00 | 0.00 | 0.00 | 99 | 1010.4 |
| 20260905110547 | 13 | 198 | 1.6 | 1.6 | 0.00 | 0.00 | 0.00 | 99 | 1010.2 |
| 20260905110043 | 13 | 198 | 0.0 | 0.0 | 0.00 | 0.00 | 0.00 | 99 | 1010.1 |
| 20260905105542 | 13 | 197 | 0.0 | 1.6 | 0.00 | 0.00 | 0.00 | 99 | 1009.8 |
| 20260905105042 | 13 | 197 | 0.0 | 0.0 | 0.00 | 0.00 | 0.00 | 99 | 1009.7 |
| 20260905104538 | 13 | 197 | 0.0 | 0.0 | 0.00 | 0.00 | 0.00 | 99 | 1009.7 |
| 20260905104037 | 13 | 197 | 0.0 | 1.6 | 0.00 | 0.00 | 0.00 | 99 | 1009.8 |
| 20260905103533 | 14 | 197 | 0.0 | 1.6 | 0.00 | 0.00 | 0.00 | 99 | 1009.7 |
| 20260905103029 | 14 | 197 | 1.6 | 1.6 | 0.00 | 0.00 | 0.00 | 99 | 1009.7 |
| 20260905102524 | 14 | 197 | 0.0 | 0.0 | 0.00 | 0.00 | 0.00 | 99 | 1009.5 |
| 20260905102020 | 14 | 197 | 0.0 | 1.6 | 0.00 | 0.00 | 0.00 | 99 | 1009.7 |
| 20260905101518 | 14 | 197 | 1.6 | 1.6 | 0.00 | 0.00 | 0.00 | 99 | 1009.3 |
| 20260905101017 | 14 | 197 | 1.6 | 1.6 | 0.00 | 0.00 | 0.00 | 99 | 1009.5 |
| 20260905100514 | 14 | 197 | 1.6 | 1.6 | 0.00 | 0.00 | 0.00 | 99 | 1009.4 |
| 20260905100008 | 14 | 197 | 0.0 | 0.0 | 0.00 | 0.00 | 0.00 | 99 | 1009.4 |
| 20260905095503 | 14 | 198 | 1.6 | 1.6 | 0.00 | 0.00 | 0.00 | 99 | 1009.3 |
| 20260905094957 | 14 | 181 | 0.0 | 1.6 | 0.00 | 0.00 | 0.00 | 99 | 1009.4 |
| 20260905094453 | 14 | 178 | 1.6 | 1.6 | 0.00 | 0.00 | 0.00 | 99 | 1009.3 |
| 20260905093951 | 14 | 176 | 1.6 | 1.6 | 0.00 | 0.00 | 0.00 | 99 | 1009.4 |
| 20260905093447 | 14 | 176 | 1.6 | 1.6 | 0.00 | 0.00 | 0.00 | 99 | 1009.3 |
| 20260905092942 | 14 | 166 | 0.0 | 0.0 | 0.00 | 0.00 | 0.00 | 99 | 1009.2 |
| 20260905092438 | 14 | 166 | 0.0 | 0.0 | 0.00 | 0.00 | 0.00 | 99 | 1009.3 |
| 20260905091932 | 14 | 166 | 0.0 | 1.6 | 0.00 | 0.00 | 0.00 | 99 | 1009.2 |
| 20260905091427 | 14 | 166 | 0.0 | 0.0 | 0.00 | 0.00 | 0.00 | 99 | 1009.3 |
| 20260905090926 | 14 | 166 | 1.6 | 1.6 | 0.00 | 0.00 | 0.00 | 99 | 1009.4 |
| 20260905090422 | 15 | 166 | 0.0 | 0.0 | 0.00 | 0.00 | 0.00 | 99 | 1009.2 |
| 20260905085921 | 15 | 166 | 0.0 | 0.0 | 0.00 | 0.00 | 0.00 | 99 | 1009.4 |
| 20260905085420 | 15 | 164 | 0.0 | 0.0 | 0.00 | 0.00 | 0.00 | 99 | 1009.4 |
| 20260905084917 | 15 | 164 | 0.0 | 0.0 | 0.00 | 0.00 | 0.00 | 99 | 1009.5 |
| 20260905084415 | 15 | 164 | 0.0 | 0.0 | 0.00 | 0.00 | 0.00 | 99 | 1009.4 |
| 20260905083910 | 15 | 164 | 1.6 | 1.6 | 0.00 | 0.00 | 0.00 | 99 | 1009.3 |
| 20260905083407 | 15 | 164 | 0.0 | 0.0 | 0.00 | 0.00 | 0.00 | 99 | 1009.4 |
| 20260905082902 | 15 | 165 | 1.6 | 1.6 | 0.00 | 0.00 | 0.00 | 99 | 1009.3 |
| 20260905082358 | 15 | 165 | 0.0 | 0.0 | 0.00 | 0.00 | 0.00 | 99 | 1009.4 |
| 20260905081853 | 15 | 165 | 1.6 | 1.6 | 0.00 | 0.00 | 0.00 | 99 | 1009.5 |
| 20260905081348 | 15 | 165 | 0.0 | 0.0 | 0.00 | 0.00 | 0.00 | 99 | 1009.3 |
| 20260905080846 | 15 | 165 | 0.0 | 1.6 | 0.00 | 0.00 | 0.00 | 99 | 1009.5 |
| 20260905080341 | 15 | 165 | 0.0 | 1.6 | 0.00 | 0.00 | 0.00 | 99 | 1009.5 |
| 20260905075839 | 15 | 165 | 0.0 | 0.0 | 0.00 | 0.00 | 0.00 | 99 | 1009.3 |
| 20260905075334 | 15 | 165 | 1.6 | 1.6 | 0.00 | 0.00 | 0.00 | 99 | 1009.2 |
| 20260905074833 | 15 | 165 | 0.0 | 0.0 | 0.00 | 0.00 | 0.00 | 99 | 1009.3 |
| 20260905074329 | 15 | 165 | 0.0 | 0.0 | 0.00 | 0.00 | 0.00 | 99 | 1009.4 |
| 20260905073824 | 15 | 165 | 1.6 | 1.6 | 0.00 | 0.00 | 0.00 | 99 | 1009.4 |
| 20260905073319 | 15 | 165 | 1.6 | 1.6 | 0.00 | 0.00 | 0.00 | 99 | 1009.2 |
| 20260905072814 | 15 | 165 | 1.6 | 1.6 | 0.00 | 0.00 | 0.00 | 99 | 1009.5 |
| 20260905072309 | 15 | 165 | 1.6 | 1.6 | 0.00 | 0.00 | 0.00 | 99 | 1009.5 |
| 20260905071806 | 15 | 165 | 0.0 | 1.6 | 0.00 | 0.00 | 0.00 | 99 | 1009.5 |
| 20260905071302 | 15 | 165 | 0.0 | 1.6 | 0.00 | 0.00 | 0.00 | 99 | 1009.6 |
| 20260905070756 | 16 | 165 | 0.0 | 1.6 | 0.00 | 0.00 | 0.00 | 99 | 1009.6 |
| 20260905070252 | 16 | 165 | 0.0 | 1.6 | 0.00 | 0.00 | 0.00 | 99 | 1009.6 |
| 20260905065751 | 16 | 165 | 0.0 | 1.6 | 0.00 | 0.00 | 0.00 | 99 | 1009.7 |
| 20260905065244 | 16 | 165 | 0.0 | 0.0 | 0.00 | 0.00 | 0.00 | 99 | 1009.9 |
| 20260905064740 | 16 | 165 | 0.0 | 1.6 | 0.00 | 0.00 | 0.00 | 99 | 1010.1 |
| 20260905064235 | 16 | 165 | 0.0 | 1.6 | 0.00 | 0.00 | 0.00 | 99 | 1009.7 |
| 20260905063728 | 16 | 165 | 0.0 | 0.0 | 0.00 | 0.00 | 0.00 | 98 | 1009.8 |
| 20260905063224 | 16 | 165 | 1.6 | 1.6 | 0.00 | 0.00 | 0.00 | 98 | 1009.7 |
| 20260905062720 | 16 | 165 | 0.0 | 0.0 | 0.00 | 0.00 | 0.00 | 99 | 1009.7 |
| 20260905062219 | 16 | 165 | 0.0 | 0.0 | 0.00 | 0.00 | 0.00 | 98 | 1009.9 |
| 20260905061714 | 16 | 165 | 0.0 | 1.6 | 0.00 | 0.00 | 0.00 | 98 | 1010.1 |
| 20260905061209 | 16 | 165 | 0.0 | 1.6 | 0.00 | 0.00 | 0.00 | 98 | 1009.9 |
| 20260905060704 | 16 | 165 | 1.6 | 3.2 | 0.00 | 0.00 | 0.00 | 98 | 1009.9 |
| 20260905060201 | 16 | 165 | 0.0 | 0.0 | 0.00 | 0.00 | 0.00 | 99 | 1010.3 |
| 20260905055659 | 16 | 165 | 1.6 | 1.6 | 0.00 | 0.00 | 0.00 | 99 | 1010.3 |
| 20260905055154 | 16 | 165 | 0.0 | 1.6 | 0.00 | 0.00 | 0.00 | 99 | 1010.2 |
| 20260905054649 | 16 | 165 | 0.0 | 0.0 | 0.00 | 0.00 | 0.00 | 99 | 1010.2 |
| 20260905054145 | 17 | 165 | 0.0 | 1.6 | 0.00 | 0.00 | 0.00 | 99 | 1010.2 |
| 20260905053645 | 17 | 165 | 0.0 | 0.0 | 0.00 | 0.00 | 0.00 | 99 | 1010.3 |
| 20260905053140 | 17 | 165 | 0.0 | 0.0 | 0.00 | 0.00 | 0.00 | 99 | 1010.4 |
| 20260905052639 | 17 | 165 | 0.0 | 0.0 | 0.00 | 0.00 | 0.00 | 99 | 1010.5 |
| 20260905052134 | 17 | 165 | 0.0 | 0.0 | 0.00 | 0.00 | 0.00 | 99 | 1010.6 |
| 20260905051629 | 17 | 165 | 1.6 | 1.6 | 0.00 | 0.00 | 0.00 | 99 | 1010.7 |
| 20260905051126 | 17 | 165 | 0.0 | 0.0 | 0.00 | 0.00 | 0.00 | 99 | 1010.6 |
| 20260905050622 | 17 | 165 | 0.0 | 1.6 | 0.00 | 0.00 | 0.00 | 99 | 1010.6 |
| 20260905050119 | 17 | 165 | 0.0 | 1.6 | 0.00 | 0.00 | 0.00 | 99 | 1010.7 |
| 20260905045618 | 17 | 165 | 0.0 | 0.0 | 0.00 | 0.00 | 0.00 | 99 | 1010.6 |
| 20260905045114 | 17 | 165 | 0.0 | 0.0 | 0.00 | 0.00 | 0.00 | 99 | 1010.4 |
| 20260905044613 | 17 | 165 | 0.0 | 0.0 | 0.00 | 0.00 | 0.00 | 99 | 1010.7 |
| 20260905044108 | 17 | 165 | 0.0 | 0.0 | 0.00 | 0.00 | 0.00 | 99 | 1010.7 |
| 20260905043607 | 17 | 165 | 0.0 | 0.0 | 0.00 | 0.00 | 0.00 | 98 | 1010.8 |
| 20260905043103 | 17 | 165 | 0.0 | 0.0 | 0.00 | 0.00 | 0.00 | 98 | 1010.8 |
| 20260905042601 | 17 | 165 | 0.0 | 0.0 | 0.00 | 0.00 | 0.00 | 98 | 1011.0 |
| 20260905042056 | 17 | 165 | 0.0 | 0.0 | 0.00 | 0.00 | 0.00 | 98 | 1010.9 |
| 20260905041552 | 17 | 165 | 0.0 | 0.0 | 0.00 | 0.00 | 0.00 | 98 | 1010.7 |
| 20260905041047 | 17 | 165 | 0.0 | 0.0 | 0.00 | 0.00 | 0.00 | 98 | 1010.9 |
| 20260905040547 | 17 | 165 | 0.0 | 0.0 | 0.00 | 0.00 | 0.00 | 98 | 1010.7 |
| 20260905040045 | 17 | 165 | 0.0 | 0.0 | 0.00 | 0.00 | 0.00 | 98 | 1010.8 |
| 20260905035541 | 17 | 165 | 0.0 | 0.0 | 0.00 | 0.81 | 0.81 | 98 | 1010.6 |
| 20260905035038 | 17 | 165 | 0.0 | 0.0 | 0.00 | 0.81 | 0.81 | 97 | 1010.4 |
| 20260905034533 | 17 | 165 | 0.0 | 0.0 | 0.00 | 0.81 | 0.81 | 97 | 1010.8 |
| 20260905034033 | 17 | 165 | 0.0 | 0.0 | 0.00 | 0.81 | 0.81 | 97 | 1010.7 |
| 20260905033526 | 17 | 165 | 0.0 | 0.0 | 0.00 | 0.81 | 0.81 | 97 | 1010.8 |
| 20260905033023 | 17 | 165 | 0.0 | 0.0 | 0.00 | 0.81 | 0.81 | 97 | 1010.9 |
| 20260905032517 | 17 | 165 | 0.0 | 0.0 | 0.00 | 0.81 | 0.81 | 97 | 1010.8 |
| 20260905032012 | 17 | 165 | 0.0 | 0.0 | 0.00 | 0.81 | 0.81 | 96 | 1010.7 |
| 20260905031508 | 17 | 165 | 0.0 | 0.0 | 0.00 | 0.81 | 0.81 | 96 | 1010.7 |
| 20260905031003 | 17 | 165 | 0.0 | 0.0 | 0.00 | 0.81 | 0.81 | 96 | 1010.5 |
| 20260905030458 | 17 | 165 | 0.0 | 0.0 | 0.00 | 0.81 | 0.81 | 96 | 1010.7 |
| 20260905025956 | 17 | 165 | 0.0 | 0.0 | 0.00 | 0.81 | 0.81 | 95 | 1010.5 |
| 20260905025452 | 17 | 165 | 0.0 | 0.0 | 0.00 | 0.81 | 0.81 | 95 | 1010.7 |
| 20260905024944 | 17 | 165 | 0.0 | 0.0 | 0.00 | 0.81 | 0.81 | 95 | 1010.6 |
| 20260905024444 | 18 | 165 | 0.0 | 0.0 | 0.00 | 0.81 | 0.81 | 95 | 1010.9 |
| 20260905023939 | 17 | 165 | 0.0 | 0.0 | 0.00 | 0.81 | 0.81 | 94 | 1010.7 |
| 20260905023434 | 18 | 165 | 0.0 | 0.0 | 0.00 | 0.81 | 0.81 | 94 | 1010.8 |
| 20260905022933 | 18 | 165 | 0.0 | 0.0 | 0.00 | 0.81 | 0.81 | 94 | 1011.0 |
| 20260905022428 | 18 | 165 | 0.0 | 0.0 | 0.00 | 0.81 | 0.81 | 94 | 1010.9 |
| 20260905021923 | 18 | 165 | 0.0 | 0.0 | 0.00 | 0.81 | 0.81 | 94 | 1010.9 |
| 20260905021418 | 18 | 165 | 0.0 | 0.0 | 0.00 | 0.81 | 0.81 | 94 | 1010.8 |
| 20260905020913 | 18 | 165 | 0.0 | 0.0 | 0.00 | 0.81 | 0.81 | 94 | 1010.9 |
| 20260905020412 | 18 | 165 | 0.0 | 0.0 | 0.00 | 0.81 | 0.81 | 94 | 1010.8 |
| 20260905015912 | 18 | 165 | 0.0 | 0.0 | 0.00 | 0.81 | 0.81 | 95 | 1011.0 |
| 20260905015410 | 18 | 165 | 0.0 | 1.6 | 0.00 | 0.81 | 0.81 | 91 | 1010.7 |
| 20260905014910 | 18 | 165 | 0.0 | 0.0 | 0.00 | 0.81 | 0.81 | 92 | 1010.6 |
| 20260905014405 | 18 | 164 | 0.0 | 0.0 | 0.00 | 0.81 | 0.81 | 93 | 1010.7 |
| 20260905013900 | 18 | 164 | 0.0 | 0.0 | 0.00 | 0.81 | 0.81 | 93 | 1010.8 |
| 20260905013357 | 18 | 164 | 0.0 | 0.0 | 0.00 | 0.81 | 0.81 | 94 | 1010.9 |
| 20260905012852 | 18 | 164 | 0.0 | 0.0 | 0.00 | 0.81 | 0.81 | 93 | 1010.7 |
| 20260905012347 | 18 | 164 | 0.0 | 0.0 | 0.00 | 0.81 | 0.81 | 93 | 1010.6 |
| 20260905011844 | 18 | 164 | 0.0 | 0.0 | 0.00 | 0.81 | 0.81 | 92 | 1011.0 |
| 20260905011339 | 18 | 165 | 0.0 | 0.0 | 0.00 | 0.81 | 0.81 | 92 | 1010.5 |
| 20260905010835 | 18 | 165 | 0.0 | 0.0 | 0.00 | 0.81 | 0.81 | 92 | 1010.7 |
| 20260905010330 | 18 | 165 | 0.0 | 0.0 | 0.00 | 0.81 | 0.81 | 92 | 1010.7 |
| 20260905005826 | 18 | 165 | 0.0 | 0.0 | 0.00 | 0.81 | 0.81 | 92 | 1010.5 |
| 20260905005322 | 18 | 164 | 0.0 | 0.0 | 0.00 | 0.81 | 0.81 | 91 | 1011.0 |
| 20260905004816 | 18 | 165 | 0.0 | 1.6 | 0.00 | 0.81 | 0.81 | 91 | 1010.7 |
| 20260905004311 | 18 | 165 | 0.0 | 0.0 | 0.00 | 0.81 | 0.81 | 91 | 1010.9 |
| 20260905003806 | 18 | 164 | 0.0 | 1.6 | 0.00 | 0.81 | 0.81 | 91 | 1010.7 |
| 20260905003302 | 18 | 165 | 0.0 | 1.6 | 0.00 | 0.81 | 0.81 | 90 | 1010.7 |
| 20260905002757 | 18 | 165 | 0.0 | 0.0 | 0.00 | 0.81 | 0.81 | 89 | 1010.7 |
| 20260905002251 | 18 | 165 | 0.0 | 0.0 | 0.00 | 0.81 | 0.81 | 89 | 1010.6 |
| 20260905001746 | 18 | 165 | 0.0 | 0.0 | 0.00 | 0.81 | 0.81 | 89 | 1010.6 |
| 20260905001246 | 18 | 165 | 0.0 | 0.0 | 0.00 | 0.81 | 0.81 | 90 | 1010.5 |
| 20260905000742 | 18 | 164 | 0.0 | 0.0 | 0.00 | 0.81 | 0.81 | 90 | 1010.5 |
| 20260905000237 | 18 | 164 | 0.0 | 0.0 | 0.00 | 0.81 | 0.81 | 89 | 1010.4 |
| 20260904235732 | 18 | 164 | 0.0 | 0.0 | 0.00 | 0.81 | 0.81 | 87 | 1010.3 |
| 20260904235226 | 19 | 164 | 0.0 | 0.0 | 0.00 | 0.81 | 0.81 | 86 | 1010.1 |
| 20260904234721 | 20 | 164 | 0.0 | 0.0 | 0.00 | 0.81 | 0.81 | 85 | 1010.3 |
| 20260904234217 | 20 | 165 | 0.0 | 0.0 | 0.00 | 0.81 | 0.81 | 83 | 1010.5 |
| 20260904233712 | 20 | 164 | 0.0 | 1.6 | 0.00 | 0.81 | 0.81 | 83 | 1010.2 |
| 20260904233209 | 20 | 164 | 0.0 | 0.0 | 0.00 | 0.81 | 0.81 | 82 | 1010.2 |
| 20260904232705 | 20 | 164 | 1.6 | 1.6 | 0.00 | 0.81 | 0.81 | 82 | 1010.2 |
| 20260904232201 | 20 | 164 | 0.0 | 1.6 | 0.00 | 0.81 | 0.81 | 80 | 1010.4 |
| 20260904231656 | 21 | 176 | 0.0 | 1.6 | 0.00 | 0.81 | 0.81 | 80 | 1010.4 |
| 20260904231151 | 21 | 175 | 0.0 | 1.6 | 0.00 | 0.81 | 0.81 | 80 | 1010.3 |
| 20260904230651 | 21 | 188 | 0.0 | 1.6 | 0.00 | 0.81 | 0.81 | 80 | 1010.3 |
| 20260904230146 | 21 | 148 | 0.0 | 1.6 | 0.00 | 0.81 | 0.81 | 80 | 1010.3 |
| 20260904225644 | 21 | 340 | 0.0 | 0.0 | 0.00 | 0.81 | 0.81 | 80 | 1010.1 |
| 20260904225139 | 21 | 340 | 1.6 | 1.6 | 0.00 | 0.81 | 0.81 | 79 | 1010.4 |
| 20260904224633 | 21 | 181 | 0.0 | 0.0 | 0.00 | 0.81 | 0.81 | 80 | 1010.4 |
| 20260904224128 | 22 | 174 | 0.0 | 1.6 | 0.00 | 0.81 | 0.81 | 81 | 1010.4 |
| 20260904223627 | 22 | 174 | 0.0 | 0.0 | 0.00 | 0.81 | 0.81 | 80 | 1010.2 |
| 20260904223122 | 22 | 169 | 0.0 | 1.6 | 0.00 | 0.81 | 0.81 | 80 | 1010.4 |
| 20260904222619 | 22 | 165 | 0.0 | 0.0 | 0.00 | 0.81 | 0.81 | 79 | 1010.3 |
| 20260904222113 | 22 | 179 | 0.0 | 1.6 | 0.00 | 0.81 | 0.81 | 78 | 1010.5 |
| 20260904221608 | 22 | 172 | 0.0 | 0.0 | 0.00 | 0.81 | 0.81 | 80 | 1010.5 |
| 20260904221107 | 22 | 172 | 1.6 | 1.6 | 0.00 | 0.81 | 0.81 | 80 | 1010.4 |
| 20260904220603 | 23 | 178 | 0.0 | 0.0 | 0.00 | 0.81 | 0.81 | 77 | 1010.2 |
| 20260904220058 | 23 | 176 | 0.0 | 0.0 | 0.00 | 0.81 | 0.81 | 77 | 1010.3 |
| 20260904215558 | 23 | 176 | 0.0 | 1.6 | 0.00 | 0.81 | 0.81 | 77 | 1010.6 |
| 20260904215054 | 23 | 175 | 0.0 | 1.6 | 0.00 | 0.81 | 0.81 | 76 | 1010.2 |
| 20260904214549 | 23 | 176 | 0.0 | 1.6 | 0.00 | 0.81 | 0.81 | 73 | 1010.4 |
| 20260904214044 | 24 | 156 | 3.2 | 3.2 | 0.00 | 0.81 | 0.81 | 71 | 1010.3 |
| 20260904213542 | 25 | 157 | 0.0 | 0.0 | 0.00 | 0.81 | 0.81 | 70 | 1010.3 |
| 20260904213039 | 25 | 103 | 0.0 | 1.6 | 0.00 | 0.81 | 0.81 | 71 | 1010.1 |
| 20260904212538 | 25 | 170 | 0.0 | 0.0 | 0.00 | 0.81 | 0.81 | 70 | 1010.1 |
| 20260904212028 | 25 | 207 | 0.0 | 0.0 | 0.00 | 0.81 | 0.81 | 69 | 1009.7 |
| 20260904211528 | 25 | 198 | 1.6 | 1.6 | 0.00 | 0.81 | 0.81 | 71 | 1010.1 |
| 20260904211023 | 25 | 198 | 0.0 | 1.6 | 0.00 | 0.81 | 0.81 | 72 | 1010.1 |
| 20260904210523 | 25 | 196 | 0.0 | 0.0 | 0.00 | 0.81 | 0.81 | 71 | 1009.8 |
| 20260904210019 | 25 | 197 | 0.0 | 1.6 | 0.00 | 0.81 | 0.81 | 71 | 1010.1 |
| 20260904205514 | 25 | 195 | 0.0 | 0.0 | 0.00 | 0.81 | 0.81 | 67 | 1010.2 |
| 20260904205011 | 26 | 220 | 3.2 | 3.2 | 0.00 | 0.81 | 0.81 | 66 | 1010.3 |
| 20260904204506 | 26 | 206 | 1.6 | 1.6 | 0.00 | 0.81 | 0.81 | 65 | 1010.1 |
| 20260904204002 | 26 | 225 | 1.6 | 3.2 | 0.00 | 0.81 | 0.81 | 64 | 1010.2 |
| 20260904203458 | 26 | 64 | 1.6 | 1.6 | 0.00 | 0.81 | 0.81 | 64 | 1010.4 |
| 20260904202954 | 26 | 212 | 1.6 | 3.2 | 0.00 | 0.81 | 0.81 | 68 | 1010.4 |
| 20260904202450 | 26 | 196 | 0.0 | 1.6 | 0.00 | 0.81 | 0.81 | 66 | 1010.5 |
| 20260904201946 | 26 | 223 | 0.0 | 1.6 | 0.00 | 0.81 | 0.81 | 68 | 1010.6 |
| 20260904201441 | 25 | 252 | 3.2 | 4.8 | 0.00 | 0.81 | 0.81 | 65 | 1010.8 |
| 20260904200936 | 26 | 145 | 0.0 | 0.0 | 0.00 | 0.81 | 0.81 | 66 | 1010.6 |
| 20260904200434 | 26 | 75 | 1.6 | 3.2 | 0.00 | 0.81 | 0.81 | 64 | 1010.6 |
| 20260904195930 | 26 | 234 | 1.6 | 1.6 | 0.00 | 0.81 | 0.81 | 66 | 1010.7 |
| 20260904195428 | 26 | 165 | 3.2 | 4.8 | 0.00 | 0.81 | 0.81 | 64 | 1010.7 |
| 20260904194927 | 26 | 244 | 0.0 | 1.6 | 0.00 | 0.81 | 0.81 | 68 | 1010.6 |
| 20260904194427 | 26 | 213 | 4.8 | 4.8 | 0.00 | 0.81 | 0.81 | 68 | 1010.7 |
| 20260904193922 | 25 | 202 | 3.2 | 4.8 | 0.00 | 0.81 | 0.81 | 66 | 1010.5 |
| 20260904193418 | 25 | 203 | 6.4 | 9.7 | 0.00 | 0.81 | 0.81 | 64 | 1010.5 |
| 20260904192913 | 26 | 204 | 8.0 | 12.9 | 0.00 | 0.81 | 0.81 | 64 | 1010.9 |
| 20260904192409 | 25 | 180 | 3.2 | 3.2 | 0.00 | 0.81 | 0.81 | 67 | 1010.8 |
| 20260904191905 | 25 | 174 | 8.0 | 9.7 | 0.00 | 0.81 | 0.81 | 65 | 1010.8 |
| 20260904191401 | 25 | 206 | 6.4 | 11.3 | 0.00 | 0.81 | 0.81 | 73 | 1011.0 |
| 20260904190857 | 26 | 155 | 1.6 | 3.2 | 0.00 | 0.81 | 0.81 | 67 | 1011.0 |
| 20260904190352 | 26 | 66 | 1.6 | 1.6 | 0.00 | 0.81 | 0.81 | 68 | 1010.8 |
| 20260904185849 | 26 | 135 | 1.6 | 1.6 | 0.00 | 0.81 | 0.81 | 68 | 1010.8 |
| 20260904185344 | 25 | 173 | 1.6 | 3.2 | 0.00 | 0.81 | 0.81 | 66 | 1010.9 |
| 20260904184844 | 26 | 166 | 1.6 | 3.2 | 0.00 | 0.81 | 0.81 | 67 | 1011.0 |